Location: Squirrel Cove
(50.1074°N, 124.9139°W)
Time: 00:10:09
(UTC-08:00)

BlueWalker 3 - Pass Details

Date: 09 December 2022
Orbit: 499 x 517 km, 53.2° (Epoch: 29 January)

Event Time Altitude Azimuth Distance (km) Brightness Sun altitude
Rises 18:34:39 0° 291° (WNW) 2,630 6.5 -20.9°
Reaches altitude 10° 18:37:00 10° 282° (WNW) 1,737 5.6 -21.2°
Maximum altitude 18:40:32 32° 218° (SW) 882 3.5 -21.8°
Enters shadow 18:42:31 20° 168° (SSE) 1,213 3.8 -22.1°
